sat.trackr.live / text

‹ back to catalog

STARLINK-4658

NORAD 53612 · 2022-104AA

PAYLOAD ACTIVE UNKNOWN

§ Identity

Operator
Country
US
Launch date
2022-08-28
Launch site
AFETR
Launch vehicle
Mass (kg)
RCS (m²)

Purposes: comms

External: N2YO · Heavens-Above · Gunter

§ Orbital elements

Epoch: 2026-09-20T04:28:10.110432Z

Period
93.79 min
Inclination
53.1609°
Eccentricity
0.0001200
Mean motion
15.35392858 rev/d
Perigee alt
458.9 km
Apogee alt
460.6 km
Semi-major
6,837.9 km
B*
3.9881e-5
RAAN
69.3743°
Arg perigee
92.4714°
Mean anomaly
267.6426°
Rev number
22,515

§ Raw data

STARLINK-46581 53612U 22104AA  26263.18622813  .00001011  00000+0  39881-4 0  99912 53612  53.1609  69.3743 0001200  92.4714 267.6426 15.35392858225152

JSON: /api/v1/satellites/53612 · /tle

For live sub-satellite position, see the globe view (requires WebGL).

§ Visibility from observer

Set your observer location to see the next 7 days of passes ≥ 10°. The values pass through the URL so the page stays shareable.

No JS? Fill the form by hand. The geolocation button needs JavaScript.